Flag for Brazil Weather past 2 weeks in Campo Grande, Mato Grosso Do Sul, Brazil

Now
73 °F

Clear.


Feels Like: 77 °F
Forecast: 66 / 88 °F
Wind: 8 mph from Southeast

Location: Campo Grande Aeroporto

Current Time: Oct 23, 2014 at 12:56:05 AM

Latest Report: Oct 23, 2014 at 12:00 AM


Visibility: 10 mi

Pressure: 30.01 "Hg

Humidity: 57%

Dew point: 57 °F

Location of Campo GrandeLocation

Historic Weather in Campo Grande — Graph

°F

Campo Grande temperature yesterday

Maximum temperature yesterday: 86 °F (at 4:00 PM)
Minimum temperature yesterday: 68 °F (at 5:00 AM)
Average temperature yesterday: 76 °F

Past Weeks' High & Low Weather Summary

 TemperatureHumidityPressure
High100 °F (Oct 13, 2:00 PM)100% (Oct 20, 10:00 AM)30.09 "Hg (Oct 20, 10:00 AM)
Low36 °F (Oct 20, 4:00 PM)19% (Oct 13, 12:00 PM)29.77 "Hg (Oct 18, 4:00 PM)
Average82 °F47%29.94 "Hg
* Reported Oct 7 11:00 PM — Midnight between Oct 22 and Oct 23, Campo Grande, Weather by CustomWeather, © 2014

Note: Actual official high and low records may vary slightly from our data, if they occured in-between our weather recording intervals... More about our weather records

Advertising

Campo Grande weather history for previous 24 hours

 ConditionsComfort  
Time TempWeatherWind HumidityBarometerVisibility
12:00 AM
Oct 23
73 °FClear.8 mph57%30.01 "Hg10 mi
11:00 PM
Oct 22
73 °FClear.8 mph61%30.01 "Hg10 mi
10:00 PM75 °FClear.8 mph57%30.01 "Hg10 mi
9:00 PM77 °FClear.8 mph54%29.98 "Hg10 mi
8:00 PM79 °FClear.10 mph51%29.95 "Hg10 mi
7:00 PM81 °FClear.8 mph48%29.95 "Hg10 mi
6:00 PM84 °FPassing clouds.5 mph40%29.95 "HgN/A
5:00 PM86 °FPassing clouds.6 mph40%29.92 "HgN/A
4:00 PM86 °FPassing clouds.7 mph40%29.95 "HgN/A
3:00 PM84 °FSunny.7 mph45%29.95 "Hg10 mi
2:00 PM84 °FSunny.12 mph45%29.98 "Hg10 mi
1:00 PM84 °FSunny.12 mph45%30.01 "Hg10 mi
12:00 PM81 °FSunny.14 mph51%30.04 "Hg10 mi
11:00 AM79 °FSunny.16 mph51%30.07 "Hg10 mi
10:00 AM75 °FSunny.22 mph57%30.07 "Hg10 mi
9:00 AM72 °FSunny.17 mph65%30.07 "Hg10 mi
8:00 AM70 °FSunny.20 mph69%30.04 "Hg10 mi
7:00 AM68 °FSunny.14 mph73%30.04 "Hg10 mi
6:00 AM68 °FPassing clouds.15 mph73%30.01 "HgN/A
5:00 AM68 °FPassing clouds.14 mph73%29.98 "HgN/A
4:00 AM70 °FClear.12 mph69%29.98 "Hg10 mi
3:00 AM70 °FPassing clouds.12 mph69%29.98 "HgN/A
2:00 AM70 °FClear.8 mph73%30.01 "Hg10 mi
1:00 AM70 °FClear.9 mph78%30.01 "Hg10 mi
12:00 AM72 °FClear.10 mph73%30.01 "Hg10 mi
Weather by CustomWeather, © 2014

See weather overviewHow to use our weather pages